Location: High Cliff State Park
(44.1557°N, 88.2948°W)
Time: 12:09:15
(UTC-06:00)

Amateur Radio Satellites - All Passes

Search period start: 01 February 2015 11:39
Search period end: 02 February 2015 11:39
Location: High Cliff State Park, 44.1557°N, 88.2948°W

Satellite Date Start Highest point End Downlink Frequencies (MHz)
Time Altitude Azimuth
ITAMSAT 1 01 Feb 11:49:13 11:52:04 15° 59° (ENE) 11:55:06 435.822/435.867
SO-50 01 Feb 12:00:45 12:02:38 12° 334° (NNW) 12:04:24 436.795
BEESAT 01 Feb 12:08:49 12:09:51 11° 86° (E) 12:11:13 436.000
ITUPSAT 1 01 Feb 12:14:13 12:16:04 12° 87° (E) 12:18:12 437.325
AIST 2 01 Feb 12:14:58 12:16:18 11° 251° (WSW) 12:17:24 435.215
50 SAT 01 Feb 12:17:00 12:18:18 11° 298° (WNW) 12:19:24 437.505
SPROUT 01 Feb 12:38:34 12:42:51 56° 287° (WNW) 12:47:05 437.525
RS-15 01 Feb 12:39:22 12:50:43 73° 51° (NE) 13:02:35 29.354- 29.394
PHONESAT 2.4 01 Feb 12:41:08 12:43:29 16° 207° (SSW) 12:45:46 2401.200-2431.200
DANDE 01 Feb 12:57:18 12:59:58 13° 50° (NE) 13:02:39 436.750
ESTCUBE 1 01 Feb 12:59:31 13:01:04 11° 300° (WNW) 13:02:25 437.505/2401.250
Oscar 19 01 Feb 13:02:08 13:07:11 49° 261° (W) 13:12:13 437.125/150
TISAT 1 01 Feb 13:03:55 13:07:47 32° 291° (WNW) 13:11:33 437.305
Gurwin Techsat 1B 01 Feb 13:04:07 13:09:08 46° 70° (ENE) 13:14:14 435.225
PCSat 01 Feb 13:05:29 13:10:41 48° 246° (WSW) 13:15:51 145.827
CUSAT 1 01 Feb 13:07:10 13:10:41 16° 54° (NE) 13:13:53 437.405
AO-7 01 Feb 13:20:29 13:26:57 27° 53° (NE) 13:33:37 29.400- 29.500
ITAMSAT 1 01 Feb 13:25:47 13:30:59 81° 258° (WSW) 13:36:13 435.822/435.867
SWISSCUBE 01 Feb 13:28:34 13:33:22 74° 103° (ESE) 13:38:09 437.505
GONETS M04 01 Feb 13:31:46 13:39:06 31° 276° (W) 13:46:12
BEESAT 01 Feb 13:43:41 13:48:29 85° 287° (WNW) 13:53:17 436.000
ITUPSAT 1 01 Feb 13:49:50 13:54:39 77° 285° (WNW) 13:59:26 437.325
HORYU 2 01 Feb 13:58:20 14:02:37 45° 71° (ENE) 14:06:56 437.375
STARS 01 Feb 14:29:31 14:33:43 39° 98° (E) 14:37:53 437.465
DANDE 01 Feb 14:38:43 14:45:15 79° 79° (E) 14:49:57 436.750
KKS-1 01 Feb 14:43:46 14:48:18 85° 103° (ESE) 14:52:47 437.445
Gurwin Techsat 1B 01 Feb 14:45:02 14:49:23 25° 268° (W) 14:53:39 435.225
CUSAT 1 01 Feb 14:48:57 14:54:54 70° 263° (W) 14:59:14 437.405
RS-15 01 Feb 14:52:29 15:02:30 36° 252° (WSW) 15:12:34 29.354- 29.394
SWISSCUBE 01 Feb 15:08:01 15:10:43 15° 299° (WNW) 15:13:14 437.505
AO-7 01 Feb 15:10:35 15:18:59 82° 253° (WSW) 15:27:25 29.400- 29.500
BEESAT 01 Feb 15:23:58 15:25:40 12° 301° (WNW) 15:27:08 436.000
O/OREOS (USA 219) 01 Feb 15:24:27 15:28:55 75° 112° (ESE) 15:33:28 437.305
SO-50 01 Feb 15:27:40 15:28:31 10° 23° (NNE) 15:29:31 436.795
ITUPSAT 1 01 Feb 15:30:53 15:31:49 10° 302° (WNW) 15:32:29 437.325
JAS-2 01 Feb 15:31:06 15:36:24 65° 73° (ENE) 15:41:33 435.910
HORYU 2 01 Feb 15:36:18 15:39:34 19° 268° (W) 15:42:42 437.375
M-CUBED/EXP-1 PRIME 01 Feb 15:38:31 15:41:52 70° 109° (ESE) 15:45:19 437.505
Cubesat XI-IV 01 Feb 15:58:52 16:02:30 20° 61° (ENE) 16:06:18 437.490
STARS 01 Feb 16:06:31 16:10:00 22° 294° (WNW) 16:13:21 437.465
AUBIESAT-1 01 Feb 16:08:43 16:11:59 52° 291° (WNW) 16:15:21 437.475
CUTE-I 01 Feb 16:16:54 16:21:14 27° 64° (ENE) 16:25:42 437.470
KKS-1 01 Feb 16:22:40 16:24:21 12° 300° (WNW) 16:25:50 437.445
DANDE 01 Feb 16:24:25 16:27:22 14° 283° (WNW) 16:29:43 436.750
MOZHAYETS 4 01 Feb 16:48:51 16:53:27 77° 102° (ESE) 16:58:01
SO-50 01 Feb 17:05:58 17:10:32 37° 46° (NE) 17:15:07 436.795
O/OREOS (USA 219) 01 Feb 17:06:20 17:08:59 15° 312° (NW) 17:11:30 437.305
AO-7 01 Feb 17:07:52 17:13:14 17° 274° (W) 17:18:05 29.400- 29.500
CUBESAT XI-V 01 Feb 17:16:40 17:18:31 12° 87° (E) 17:20:38 437.345
JAS-2 01 Feb 17:18:57 17:22:10 15° 271° (W) 17:25:05 435.910
PRISM 01 Feb 17:22:04 17:24:40 16° 91° (E) 17:27:24 437.425
Cubesat XI-IV 01 Feb 17:36:52 17:42:09 65° 258° (WSW) 17:47:30 437.490
CUTE-I 01 Feb 17:56:02 18:01:07 45° 262° (W) 18:06:15 437.470
GOMX 1 01 Feb 18:18:31 18:20:43 13° 58° (ENE) 18:23:13 467.674
MOZHAYETS 4 01 Feb 18:27:58 18:30:09 13° 299° (WNW) 18:32:08
CUTE 1.7 + AOD 2 01 Feb 18:32:10 18:33:42 12° 62° (ENE) 18:35:26 437.475
YUBILEINY 01 Feb 18:33:44 18:41:58 51° 90° (E) 18:50:20 435.215
BRITE-PL 01 Feb 18:39:53 18:44:11 27° 65° (ENE) 18:48:47 437.365/2234.400
SO-50 01 Feb 18:46:36 18:51:06 35° 244° (WSW) 18:55:31 436.795
HO-68 01 Feb 18:50:00 18:56:27 39° 63° (ENE) 19:03:01 435.675
STRAND 1 01 Feb 18:51:20 18:56:30 71° 102° (ESE) 19:01:39 437.568
CUBESAT XI-V 01 Feb 18:51:54 18:56:36 74° 285° (WNW) 19:01:19 437.345
SEEDS 01 Feb 18:56:03 18:58:51 18° 65° (ENE) 19:01:47 437.485
PRISM 01 Feb 18:56:29 19:00:29 45° 289° (WNW) 19:04:27 437.425
CINEMA 3 01 Feb 19:08:32 19:11:13 15° 61° (ENE) 19:14:06 145.822/145.860
COMPASS 1 01 Feb 19:16:27 19:19:48 24° 68° (ENE) 19:23:13 437.405
AAUSAT CUBESAT 2 01 Feb 19:39:14 19:43:04 35° 71° (ENE) 19:46:56 437.432
CANX-2 01 Feb 19:41:16 19:45:31 66° 75° (ENE) 19:49:47 2200.000
ZACube-1 01 Feb 19:46:18 19:48:24 13° 62° (ENE) 19:50:42 437.345
DOVE 4 01 Feb 19:47:11 19:52:11 53° 72° (ENE) 19:57:24 437.250
DX 1 01 Feb 19:48:46 19:51:22 16° 63° (ENE) 19:54:07 434.975-435.025
GOMX 1 01 Feb 19:52:47 19:57:59 80° 76° (ENE) 20:03:29 467.674
CUBEBUG 2 01 Feb 19:53:52 19:57:29 22° 66° (ENE) 20:01:13 437.445
FUNcube-1 01 Feb 19:56:10 19:58:56 16° 64° (ENE) 20:01:52 145.935
CUTE 1.7 + AOD 2 01 Feb 20:04:50 20:09:07 75° 258° (WSW) 20:13:25 437.475
ISS 01 Feb 20:05:41 20:08:37 32° 140° (SE) 20:11:37 145.825
BRITE-PL 01 Feb 20:17:23 20:22:25 47° 263° (W) 20:27:46 437.365/2234.400
Oscar 11 01 Feb 20:19:58 20:24:09 50° 73° (ENE) 20:28:23 145.826/435.025
UWE-3 01 Feb 20:24:58 20:29:13 36° 70° (ENE) 20:33:33 435.000/436.395/437.385
SEEDS 01 Feb 20:30:18 20:34:24 46° 262° (W) 20:38:30 437.485
YUBILEINY 01 Feb 20:31:08 20:39:07 38° 291° (WNW) 20:47:03 435.215
AISAT 01 Feb 20:31:17 20:34:11 18° 64° (ENE) 20:37:14 437.250
STRAND 1 01 Feb 20:31:51 20:35:12 17° 299° (WNW) 20:38:22 437.568
HO-68 01 Feb 20:37:21 20:44:09 45° 262° (W) 20:50:55 435.675
CINEMA 3 01 Feb 20:42:49 20:47:49 80° 258° (WSW) 20:52:55 145.822/145.860
DELFI C3 01 Feb 20:47:27 20:51:31 80° 77° (ENE) 20:55:36 145.870
ESTCUBE 1 01 Feb 20:48:02 20:49:33 12° 60° (ENE) 20:51:18 437.505/2401.250
COMPASS 1 01 Feb 20:51:35 20:55:25 32° 264° (W) 20:59:12 437.405
HUMSAT D 01 Feb 20:52:57 20:56:47 31° 69° (ENE) 21:00:40 437.325/437.525
CUBEBUG 1 01 Feb 20:55:14 20:56:58 12° 61° (ENE) 20:58:55 437.445
VELOX 1 01 Feb 20:56:25 21:00:13 29° 68° (ENE) 21:04:06 145.980
UKube-1 01 Feb 20:57:19 21:01:38 75° 75° (ENE) 21:06:00 .
AIST 1 01 Feb 21:03:11 21:06:59 29° 73° (ENE) 21:10:52
AAUSAT CUBESAT 2 01 Feb 21:15:37 21:18:52 21° 268° (W) 21:22:02 437.432
ZACube-1 01 Feb 21:19:37 21:24:14 78° 259° (W) 21:28:53 437.345
CANX-2 01 Feb 21:20:17 21:22:01 12° 273° (W) 21:23:30 2200.000
DX 1 01 Feb 21:22:56 21:27:13 56° 259° (W) 21:31:32 434.975-435.025
DOVE 4 01 Feb 21:26:22 21:30:20 21° 271° (W) 21:34:16 437.250
50 SAT 01 Feb 21:28:15 21:32:18 55° 73° (ENE) 21:36:21 437.505
CUBEBUG 2 01 Feb 21:29:20 21:33:56 45° 262° (W) 21:38:33 437.445
FUNcube-1 01 Feb 21:30:18 21:34:52 61° 260° (W) 21:39:27 145.935
GOMX 1 01 Feb 21:33:59 21:36:55 14° 275° (W) 21:39:38 467.674
UNISAT 6 01 Feb 21:38:49 21:41:52 19° 91° (E) 21:44:59 437.425
ISS 01 Feb 21:41:54 21:45:03 42° 337° (NNW) 21:48:13 145.825
NANOSAT C BR1 01 Feb 21:45:18 21:47:03 13° 88° (E) 21:49:01 145.865
Oscar 11 01 Feb 21:57:54 22:00:41 16° 270° (W) 22:03:20 145.826/435.025
SPROUT 01 Feb 22:00:18 22:02:40 15° 63° (ENE) 22:05:12 437.525
BUGSAT 1 01 Feb 22:00:29 22:02:44 14° 89° (E) 22:05:11 437.445
QB50P2 01 Feb 22:00:54 22:03:57 19° 91° (E) 22:07:06 145.880/145.840
UWE-3 01 Feb 22:01:54 22:05:52 26° 267° (W) 22:09:46 435.000/436.395/437.385
AISAT 01 Feb 22:06:06 22:10:27 53° 260° (W) 22:14:52 437.250
QB50P1 01 Feb 22:08:35 22:11:58 23° 93° (E) 22:15:24 145.935-145.965
ANTELSAT 01 Feb 22:14:20 22:18:33 43° 98° (E) 22:22:42 437.575/2403.000
TIGRISAT 01 Feb 22:19:40 22:23:58 48° 99° (E) 22:28:09 435.000
ESTCUBE 1 01 Feb 22:21:22 22:25:51 84° 257° (WSW) 22:30:23 437.505/2401.250
TISAT 1 01 Feb 22:22:37 22:25:58 24° 67° (ENE) 22:29:26 437.305
POLYITAN 1 01 Feb 22:25:41 22:29:38 34° 96° (E) 22:33:34 437.675
CUBEBUG 1 01 Feb 22:28:27 22:32:49 76° 258° (WSW) 22:37:14 437.445
HUMSAT D 01 Feb 22:28:56 22:32:38 26° 266° (W) 22:36:14 437.325/437.525
VELOX 1 01 Feb 22:32:53 22:36:47 29° 265° (W) 22:40:40 145.980
UKube-1 01 Feb 22:37:13 22:38:26 11° 273° (W) 22:39:24 .
AIST 1 01 Feb 22:40:57 22:44:36 25° 270° (W) 22:48:10
POPSAT HIP 1 01 Feb 22:43:21 22:47:36 52° 100° (E) 22:51:48 437.405
DUCHIFAT 1 01 Feb 22:43:37 22:47:50 52° 100° (E) 22:52:02 145.980
GONETS M04 01 Feb 22:46:50 22:49:51 13° 74° (ENE) 22:53:31
SWISSCUBE 01 Feb 23:02:03 23:04:10 13° 60° (ENE) 23:06:31 437.505
50 SAT 01 Feb 23:05:38 23:07:48 13° 271° (W) 23:09:48 437.505
UNISAT 6 01 Feb 23:14:44 23:18:58 43° 289° (WNW) 23:23:04 437.425
BEESAT 01 Feb 23:16:09 23:19:03 17° 62° (ENE) 23:22:07 436.000
NANOSAT C BR1 01 Feb 23:19:10 23:23:27 63° 286° (WNW) 23:27:40 145.865
ISS 01 Feb 23:19:28 23:22:07 22° 357° (N) 23:24:45 145.825
ITUPSAT 1 01 Feb 23:22:16 23:25:27 19° 63° (ENE) 23:28:48 437.325
SPROUT 01 Feb 23:34:04 23:38:20 60° 259° (W) 23:42:39 437.525
BUGSAT 1 01 Feb 23:34:26 23:38:39 55° 287° (WNW) 23:42:50 437.445
QB50P2 01 Feb 23:36:02 23:40:07 41° 289° (WNW) 23:44:08 145.880/145.840
QB50P1 01 Feb 23:44:02 23:47:59 35° 290° (WNW) 23:51:51 145.935-145.965
ANTELSAT 01 Feb 23:51:50 23:55:06 20° 295° (WNW) 23:58:11 437.575/2403.000
O/OREOS (USA 219) 01 Feb 23:54:12 23:57:50 23° 53° (NE) 00:01:33 437.305
TIGRISAT 01 Feb 23:57:19 00:00:24 18° 296° (WNW) 00:03:18 435.000
TISAT 1 01 Feb 23:57:47 00:01:40 33° 264° (W) 00:05:34 437.305
POLYITAN 1 02 Feb 00:01:57 00:05:26 24° 293° (WNW) 00:08:49 437.675
KKS-1 02 Feb 00:10:27 00:11:46 11° 60° (ENE) 00:13:18 437.445
BEESAT 2 02 Feb 00:17:49 00:20:36 18° 112° (ESE) 00:23:32 435.950
POPSAT HIP 1 02 Feb 00:20:21 00:23:08 16° 296° (WNW) 00:25:46 437.405
DUCHIFAT 1 02 Feb 00:20:34 00:23:20 17° 296° (WNW) 00:25:57 145.980
BEESAT 3 02 Feb 00:27:04 00:30:26 25° 115° (ESE) 00:33:55 437.485
AIST 2 02 Feb 00:36:14 00:37:46 12° 110° (ESE) 00:39:32 435.215
GONETS M04 02 Feb 00:36:34 00:45:11 67° 93° (E) 00:53:50
SWISSCUBE 02 Feb 00:36:42 00:41:27 82° 257° (WSW) 00:46:16 437.505
BEESAT 02 Feb 00:51:45 00:56:29 63° 259° (WSW) 01:01:14 436.000
ISS 02 Feb 00:56:17 00:59:16 31° 17° (NNE) 01:02:16 145.825
M-CUBED/EXP-1 PRIME 02 Feb 00:57:04 00:58:26 12° 60° (ENE) 00:59:55 437.505
ITUPSAT 1 02 Feb 00:58:19 01:03:00 56° 260° (W) 01:07:42 437.325
Oscar 19 02 Feb 01:12:01 01:17:03 52° 100° (E) 01:22:03 437.125/150
Gurwin Techsat 1B 02 Feb 01:19:55 01:23:02 16° 88° (E) 01:26:23 435.225
AUBIESAT-1 02 Feb 01:25:12 01:28:02 21° 64° (ENE) 01:30:48 437.475
STARS 02 Feb 01:28:00 01:32:12 43° 71° (ENE) 01:36:28 437.465
O/OREOS (USA 219) 02 Feb 01:33:07 01:37:30 43° 252° (WSW) 01:41:50 437.305
ITAMSAT 1 02 Feb 01:37:25 01:42:04 32° 95° (E) 01:46:46 435.822/435.867
KKS-1 02 Feb 01:43:18 01:47:49 88° 260° (W) 01:52:21 437.445
BEESAT 2 02 Feb 01:54:28 01:58:30 49° 309° (NW) 02:02:35 435.950
BEESAT 3 02 Feb 02:04:37 02:08:27 36° 313° (NW) 02:12:20 437.485
PCSat 02 Feb 02:07:18 02:10:40 17° 106° (ESE) 02:14:15 145.827
DANDE 02 Feb 02:08:14 02:14:04 22° 83° (E) 02:20:15 436.750
AIST 2 02 Feb 02:11:35 02:15:51 77° 304° (NW) 02:20:11 435.215
CUSAT 1 02 Feb 02:14:25 02:20:58 27° 86° (E) 02:27:37 437.405
MOZHAYETS 4 02 Feb 02:19:20 02:20:11 11° 60° (ENE) 02:21:17
M-CUBED/EXP-1 PRIME 02 Feb 02:29:17 02:33:09 60° 253° (WSW) 02:36:43 437.505
ISS 02 Feb 02:32:39 02:35:55 59° 216° (SW) 02:39:10 145.825
GONETS M04 02 Feb 02:35:23 02:42:51 29° 296° (WNW) 02:50:06
Oscar 19 02 Feb 02:52:09 02:56:06 22° 297° (WNW) 02:59:55 437.125/150
Gurwin Techsat 1B 02 Feb 02:58:20 03:03:39 70° 287° (WNW) 03:08:56 435.225
AUBIESAT-1 02 Feb 02:59:29 03:02:54 29° 257° (WSW) 03:06:04 437.475
STARS 02 Feb 03:05:37 03:08:56 20° 268° (W) 03:12:09 437.465
RS-15 02 Feb 03:06:02 03:15:28 37° 109° (ESE) 03:25:13 29.354- 29.394
AO-7 02 Feb 03:11:04 03:18:09 31° 94° (E) 03:25:22 29.400- 29.500
ITAMSAT 1 02 Feb 03:16:51 03:21:37 35° 293° (WNW) 03:26:17 435.822/435.867
HORYU 2 02 Feb 03:24:38 03:29:06 76° 103° (ESE) 03:33:32 437.375
BEESAT 2 02 Feb 03:37:13 03:37:46 10° 331° (NNW) 03:38:13 435.950
DANDE 02 Feb 03:48:08 03:56:41 88° 100° (E) 04:05:13 436.750
PCSat 02 Feb 03:48:10 03:53:34 72° 303° (WNW) 03:59:02 145.827
MOZHAYETS 4 02 Feb 03:52:11 03:56:46 85° 77° (ENE) 04:01:23
AIST 2 02 Feb 03:52:54 03:55:15 14° 326° (NNW) 03:57:31 435.215
CUSAT 1 02 Feb 03:55:01 04:03:28 76° 282° (WNW) 04:11:37 437.405
PRISM 02 Feb 04:14:44 04:17:12 16° 64° (ENE) 04:19:49 437.425
JAS-2 02 Feb 04:21:34 04:27:15 53° 100° (E) 04:33:40 435.910
CUBESAT XI-V 02 Feb 04:21:46 04:24:23 16° 63° (ENE) 04:27:11 437.345
STRAND 1 02 Feb 04:32:04 04:35:12 17° 61° (ENE) 04:38:32 437.568
Gurwin Techsat 1B 02 Feb 04:41:17 04:42:47 11° 304° (NW) 04:43:59 435.225
YUBILEINY 02 Feb 04:42:00 04:49:09 28° 63° (ENE) 04:56:32 435.215
HORYU 2 02 Feb 05:03:11 05:05:15 13° 299° (WNW) 05:07:07 437.375
AO-7 02 Feb 05:03:19 05:11:33 64° 294° (WNW) 05:19:40 29.400- 29.500
RS-15 02 Feb 05:16:22 05:27:15 68° 311° (NW) 05:38:17 29.354- 29.394
DANDE 02 Feb 05:34:19 05:41:15 25° 299° (WNW) 05:47:44 436.750
PCSat 02 Feb 05:34:40 05:38:03 16° 325° (NW) 05:41:18 145.827
CUSAT 1 02 Feb 05:41:58 05:47:51 19° 302° (WNW) 05:53:10 437.405
VERMONT LUNAR 02 Feb 05:47:47 05:48:19 10° 149° (SSE) 05:48:57 437.305
PRISM 02 Feb 05:48:25 05:52:25 49° 260° (W) 05:56:25 437.425
Cubesat XI-IV 02 Feb 05:52:38 05:57:48 45° 98° (E) 06:02:58 437.490
CUBESAT XI-V 02 Feb 05:56:48 06:01:23 64° 259° (W) 06:06:00 437.345
JAS-2 02 Feb 06:07:23 06:12:12 27° 294° (WNW) 06:17:19 435.910
STRAND 1 02 Feb 06:08:50 06:13:55 70° 257° (WSW) 06:19:03 437.568
CUTE-I 02 Feb 06:11:14 06:16:36 65° 101° (ESE) 06:21:57 437.470
YUBILEINY 02 Feb 06:38:09 06:46:55 71° 266° (W) 06:55:38 435.215
AO-7 02 Feb 06:57:57 07:02:53 17° 315° (NW) 07:07:29 29.400- 29.500
PHONESAT 2.4 02 Feb 07:10:16 07:12:59 20° 157° (SSE) 07:15:44 2401.200-2431.200
VERMONT LUNAR 02 Feb 07:22:42 07:25:48 31° 164° (SSE) 07:28:55 437.305
CANX-2 02 Feb 07:28:35 07:28:47 10° 86° (E) 07:29:15 2200.000
RS-15 02 Feb 07:32:53 07:42:11 30° 341° (NNW) 07:51:36 29.354- 29.394
Cubesat XI-IV 02 Feb 07:33:12 07:37:42 27° 296° (WNW) 07:42:05 437.490
DOVE 4 02 Feb 07:47:10 07:49:37 14° 85° (E) 07:52:16 437.250
CUTE 1.7 + AOD 2 02 Feb 07:49:55 07:52:35 17° 90° (E) 07:55:24 437.475
CUTE-I 02 Feb 07:52:24 07:56:14 20° 299° (WNW) 07:59:54 437.470
GOMX 1 02 Feb 07:54:24 07:58:37 24° 90° (E) 08:02:46 467.674
HO-68 02 Feb 08:03:04 08:09:25 34° 95° (E) 08:15:51 435.675
SEEDS 02 Feb 08:13:45 08:17:14 25° 94° (E) 08:20:45 437.485
BRITE-PL 02 Feb 08:20:45 08:26:20 58° 99° (E) 08:31:37 437.365/2234.400
COMPASS 1 02 Feb 08:33:38 08:37:28 34° 97° (E) 08:41:17 437.405
BEESAT 2 02 Feb 08:35:15 08:38:35 23° 41° (NE) 08:41:56 435.950
CINEMA 3 02 Feb 08:37:37 08:41:22 23° 91° (E) 08:45:03 145.822/145.860
YUBILEINY 02 Feb 08:38:00 08:42:18 14° 285° (WNW) 08:45:59 435.215
UNISAT 6 02 Feb 08:39:13 08:42:50 23° 66° (ENE) 08:46:31 437.425
NANOSAT C BR1 02 Feb 08:40:10 08:42:04 13° 62° (ENE) 08:44:08 145.865
BEESAT 3 02 Feb 08:44:37 08:48:16 29° 45° (NE) 08:51:54 437.485
UKube-1 02 Feb 08:46:05 08:47:14 11° 87° (E) 08:48:39 .
PHONESAT 2.4 02 Feb 08:47:39 08:51:06 43° 173° (S) 08:54:32 2401.200-2431.200
BUGSAT 1 02 Feb 08:53:07 08:55:01 13° 62° (ENE) 08:57:06 437.445
AIST 2 02 Feb 08:54:30 08:57:25 18° 37° (NE) 09:00:25 435.215
QB50P2 02 Feb 08:55:53 08:58:52 19° 65° (ENE) 09:01:59 145.880/145.840
AAUSAT CUBESAT 2 02 Feb 08:56:20 09:00:26 54° 100° (E) 09:04:30 437.432
VERMONT LUNAR 02 Feb 09:00:13 09:03:34 46° 181° (S) 09:06:56 437.305
CANX-2 02 Feb 09:01:08 09:05:22 75° 285° (WNW) 09:09:34 2200.000
SO-50 02 Feb 09:02:05 09:06:32 55° 120° (ESE) 09:11:11 436.795
QB50P1 02 Feb 09:03:17 09:06:33 22° 66° (ENE) 09:09:55 145.935-145.965
ZACube-1 02 Feb 09:08:16 09:11:16 18° 90° (E) 09:14:20 437.345
DX 1 02 Feb 09:10:27 09:13:50 22° 93° (E) 09:17:19 434.975-435.025
ANTELSAT 02 Feb 09:14:31 09:19:02 49° 72° (ENE) 09:23:33 437.575/2403.000
FUNcube-1 02 Feb 09:18:21 09:21:48 23° 92° (E) 09:25:15 145.935
TIGRISAT 02 Feb 09:19:31 09:24:05 53° 73° (ENE) 09:28:39 435.000
CUBEBUG 2 02 Feb 09:19:34 09:23:42 34° 95° (E) 09:27:43 437.445
POLYITAN 1 02 Feb 09:20:27 09:24:18 33° 69° (ENE) 09:28:13 437.675
DOVE 4 02 Feb 09:22:58 09:28:09 75° 285° (WNW) 09:33:00 437.250
CUTE 1.7 + AOD 2 02 Feb 09:24:47 09:28:50 45° 288° (WNW) 09:32:51 437.475
GOMX 1 02 Feb 09:31:52 09:37:03 47° 289° (WNW) 09:41:56 467.674
AIST 1 02 Feb 09:35:47 09:38:18 16° 87° (E) 09:41:00
DUCHIFAT 1 02 Feb 09:37:39 09:41:45 48° 72° (ENE) 09:45:56 145.980
POPSAT HIP 1 02 Feb 09:37:41 09:41:49 48° 72° (ENE) 09:46:01 437.405
Oscar 11 02 Feb 09:41:46 09:46:07 84° 105° (ESE) 09:50:25 145.826/435.025
SEEDS 02 Feb 09:49:25 09:53:06 29° 291° (WNW) 09:56:42 437.485
UWE-3 02 Feb 09:49:55 09:54:21 61° 100° (E) 09:58:38 435.000/436.395/437.385
RS-15 02 Feb 09:49:56 09:59:06 28° 16° (NNE) 10:08:42 29.354- 29.394
HO-68 02 Feb 09:50:31 09:57:25 51° 294° (WNW) 10:04:14 435.675
AISAT 02 Feb 09:55:59 09:59:47 26° 94° (E) 10:03:38 437.250
BRITE-PL 02 Feb 10:00:02 10:04:24 23° 297° (WNW) 10:08:30 437.365/2234.400
DELFI C3 02 Feb 10:01:23 10:05:25 71° 285° (WNW) 10:09:26 145.870
COMPASS 1 02 Feb 10:09:47 10:13:02 22° 293° (WNW) 10:16:12 437.405
HUMSAT D 02 Feb 10:11:19 10:15:23 46° 98° (E) 10:19:24 437.325/437.525
BEESAT 2 02 Feb 10:13:01 10:17:03 48° 241° (WSW) 10:21:01 435.950
NANOSAT C BR1 02 Feb 10:13:10 10:17:27 70° 259° (W) 10:21:45 145.865
ESTCUBE 1 02 Feb 10:13:37 10:16:45 19° 91° (E) 10:20:00 437.505/2401.250
CINEMA 3 02 Feb 10:14:16 10:18:46 40° 290° (WNW) 10:23:02 145.822/145.860
UNISAT 6 02 Feb 10:14:56 10:19:26 42° 262° (W) 10:23:52 437.425
CUBEBUG 1 02 Feb 10:16:56 10:20:00 18° 91° (E) 10:23:10 437.445
UKube-1 02 Feb 10:19:38 10:24:01 73° 286° (WNW) 10:28:21 .
VELOX 1 02 Feb 10:21:28 10:25:49 47° 99° (E) 10:30:09 145.980
BEESAT 3 02 Feb 10:22:40 10:26:26 33° 243° (WSW) 10:30:08 437.485
BUGSAT 1 02 Feb 10:25:57 10:30:03 65° 259° (W) 10:34:14 437.445
PHONESAT 2.4 02 Feb 10:25:57 10:29:22 41° 190° (S) 10:32:48 2401.200-2431.200
QB50P2 02 Feb 10:30:24 10:34:31 44° 262° (W) 10:38:40 145.880/145.840
AIST 2 02 Feb 10:32:16 10:36:34 73° 238° (WSW) 10:40:47 435.215
AAUSAT CUBESAT 2 02 Feb 10:33:17 10:35:43 15° 296° (WNW) 10:38:00 437.432
QB50P1 02 Feb 10:38:16 10:42:16 37° 263° (W) 10:46:17 145.935-145.965
VERMONT LUNAR 02 Feb 10:38:17 10:41:20 28° 198° (SSW) 10:44:23 437.305
50 SAT 02 Feb 10:41:10 10:45:13 76° 102° (ESE) 10:49:12 437.505
SO-50 02 Feb 10:43:36 10:47:27 24° 321° (NW) 10:51:21 436.795
ZACube-1 02 Feb 10:43:44 10:47:57 43° 289° (WNW) 10:52:00 437.345
GONETS M04 02 Feb 10:45:08 10:52:53 36° 68° (ENE) 11:00:48
DX 1 02 Feb 10:46:10 10:50:16 38° 290° (WNW) 10:54:18 434.975-435.025
PCSat 02 Feb 10:51:48 10:56:10 24° 42° (NE) 11:00:35 145.827
ANTELSAT 02 Feb 10:52:43 10:56:08 19° 269° (W) 10:59:25 437.575/2403.000
FUNcube-1 02 Feb 10:54:16 10:58:17 34° 290° (WNW) 11:02:09 145.935
Oscar 19 02 Feb 10:54:31 10:56:48 13° 58° (ENE) 10:59:18 437.125/150
CUBEBUG 2 02 Feb 10:56:32 11:00:17 25° 293° (WNW) 11:03:50 437.445
POLYITAN 1 02 Feb 10:56:45 11:00:19 24° 267° (W) 11:03:51 437.675
TIGRISAT 02 Feb 10:57:59 11:01:12 17° 270° (W) 11:04:15 435.000
DOVE 4 02 Feb 11:03:28 11:05:01 11° 303° (WNW) 11:06:17 437.250
AIST 1 02 Feb 11:11:33 11:15:38 45° 283° (WNW) 11:19:46
DUCHIFAT 1 02 Feb 11:15:08 11:17:57 16° 270° (W) 11:20:37 145.980
POPSAT HIP 1 02 Feb 11:15:16 11:18:04 16° 270° (W) 11:20:44 437.405
SPROUT 02 Feb 11:20:04 11:23:22 21° 92° (E) 11:26:45 437.525
Oscar 11 02 Feb 11:20:26 11:21:43 11° 299° (WNW) 11:22:48 145.826/435.025
UWE-3 02 Feb 11:27:48 11:30:26 15° 298° (WNW) 11:32:52 435.000/436.395/437.385
